Wind_Gust
14 16 16 16 17 20 18 17 10 10 9 11 10 10 12 11 16 14 11 14 16 12 14 14 15 16 17 15 16 16 17 17 17 17 17 16 16 17 16 15 14 13 12 11 12 14 15 16 17 15 15 15 13 12 12 12 12 11 11 10 10 9 9 10 10 10 9 11 11 9 10 10 9 9 7 8 7 8 9 9 12 11 10 10 11 12
16 17 17 17 16 18 17 14 12 12 9 10 10 10 15 12 18 12 13 13 17 16 17 11 13 18 18 16 17 16 17 18 19 18 18 18 17 16 16 16 15 11 10 11 13 14 16 18 17 16 14 14 15 14 14 14 13 12 11 10 10 9 9 9 9 9 9 10 11 9 10 10 9 9 9 7 8 7 8 9 9 9 10 10 10 12
18 17 16 12 10 11 12 15 14 13 9 11 14 13 13 15 16 13 11 12 14 14 13 12 13 16 16 16 17 18 18 18 18 18 17 16 16 17 16 15 13 12 12 13 14 15 17 18 19 17 15 14 14 13 14 13 13 12 12 12 10 9 9 8 8 11 11 10 9 10 8 10 8 7 9 10 9 8 9 7 9 8 9 10 11 11
15 13 16 12 15 17 13 15 15 14 13 13 13 16 13 16 15 18 15 13 14 15 9 11 14 14 14 15 17 17 19 17 16 16 16 15 16 16 16 14 14 15 15 15 15 16 17 17 17 16 16 15 14 13 13 13 13 13 13 11 11 9 9 8 8 9 9 8 7 8 9 8 11 11 8 9 9 8 9 8 7 9 8 10 13 13
19 16 12 16 16 16 15 15 16 15 15 13 12 10 13 14 11 13 18 14 13 14 13 15 18 19 16 20 19 19 17 16 17 18 17 17 18 15 11 12 14 15 14 14 16 15 16 18 19 18 16 16 16 14 13 14 14 12 12 12 10 9 8 8 8 8 8 9 10 10 9 10 10 11 11 10 11 9 7 11 8 8 9 11 12 13
17 14 15 16 15 14 16 15 17 14 12 13 14 15 10 9 12 12 17 16 18 17 17 11 18 19 14 14 16 19 21 20 19 20 20 19 18 17 16 17 14 13 13 16 16 18 18 18 17 16 16 17 16 15 14 13 13 12 12 12 11 8 8 9 9 8 9 9 10 11 11 11 11 11 10 10 10 10 9 10 9 10 10 11 11 13
12 12 17 17 16 15 15 12 13 15 10 11 18 11 12 10 13 17 17 16 13 11 15 13 17 15 14 15 15 14 17 19 20 21 21 20 20 20 19 17 16 16 15 13 13 15 16 16 17 17 17 18 16 15 15 14 12 12 12 12 11 9 8 9 8 8 9 9 9 11 12 11 11 11 9 8 9 10 10 8 9 11 9 11 11 12
13 15 16 15 16 17 15 15 16 18 14 13 14 10 12 14 15 17 17 13 12 10 12 11 15 15 15 17 10 12 15 15 17 19 20 20 19 19 18 18 14 16 14 15 15 15 16 17 19 20 18 18 17 14 15 14 13 14 13 13 12 10 9 8 8 9 8 9 8 9 11 11 12 11 10 8 8 8 9 10 10 11 10 10 11 12
15 17 17 19 16 17 19 22 14 20 16 17 11 10 13 14 13 15 13 11 9 12 15 14 10 15 11 16 11 12 16 16 15 15 17 18 18 19 19 19 17 16 16 14 16 17 17 18 19 17 17 16 15 16 16 16 14 13 13 13 12 11 9 9 8 9 8 9 9 9 9 10 10 10 10 9 9 10 8 10 10 11 13 10 11 12
11 12 17 15 17 15 12 11 13 20 17 15 13 15 14 13 12 12 14 13 11 16 13 11 10 16 15 12 15 13 12 11 12 12 13 12 15 18 20 18 17 17 15 16 15 16 16 16 15 14 14 16 16 16 15 14 15 15 14 13 13 12 11 10 9 9 9 9 9 9 9 9 10 9 8 9 9 9 8 10 9 10 10 11 10 10
13 9 11 15 16 13 15 13 9 14 11 20 17 17 16 15 15 15 14 11 14 9 13 10 9 14 11 11 9 10 12 10 11 13 13 13 13 15 15 18 19 19 19 17 16 16 17 16 16 16 16 15 15 15 16 16 16 16 15 14 14 13 11 10 9 9 10 9 9 9 9 9 11 10 10 10 10 9 8 9 8 8 10 11 11 10
14 13 15 14 10 15 17 21 13 10 15 16 18 15 18 15 14 16 15 13 12 12 12 10 9 10 12 15 10 13 12 11 11 12 13 13 16 17 17 19 19 18 18 18 19 18 18 17 16 17 17 16 16 15 17 16 16 16 16 15 14 13 12 11 11 10 10 10 10 9 9 9 9 10 10 9 11 11 11 8 8 8 9 9 10 9
18 18 14 14 12 17 19 18 16 16 15 17 15 16 13 10 17 10 15 10 10 12 15 12 9 13 15 15 11 11 12 14 12 12 15 14 16 15 16 16 17 18 18 20 18 18 18 18 19 18 17 17 17 17 17 17 17 16 15 15 15 14 13 12 11 10 11 10 10 10 10 10 9 9 10 10 9 9 8 8 9 8 10 9 10 10
16 14 17 16 14 19 19 18 19 16 21 16 17 12 11 8 9 9 11 11 12 13 12 10 10 13 13 14 11 12 12 12 12 11 11 12 12 14 16 16 17 17 18 18 17 18 18 18 19 18 18 18 17 17 19 18 16 16 15 15 15 14 13 12 11 11 11 11 10 10 10 9 9 9 8 8 10 8 8 8 8 9 9 10 9 10
16 18 23 20 20 23 25 20 24 14 21 19 11 12 9 14 10 5 10 7 12 12 13 11 14 10 10 14 11 13 13 13 14 14 13 12 13 11 13 14 16 16 14 17 18 19 19 18 17 18 18 17 17 17 18 17 17 16 16 16 16 14 15 13 12 12 11 11 11 11 10 10 10 9 9 9 8 9 10 9 8 8 8 9 9 10
15 17 17 20 13 25 24 15 13 18 17 12 10 11 13 10 13 11 12 11 9 11 13 17 10 11 14 15 12 12 13 13 14 15 15 15 15 14 14 13 14 15 17 18 17 17 16 17 16 17 17 16 16 17 16 16 17 17 16 16 16 16 15 14 13 12 11 11 11 11 10 10 10 9 9 9 9 9 9 10 10 9 8 9 9 9
14 17 16 17 11 19 18 16 17 14 14 17 16 16 13 13 17 13 9 9 8 14 11 6 15 15 18 16 15 15 15 16 16 17 17 17 16 13 12 13 14 14 16 16 16 17 17 17 16 17 16 16 16 17 17 17 17 16 16 16 16 15 14 15 14 13 12 11 11 12 12 11 11 12 11 10 9 10 9 10 10 10 10 9 10 10
18 15 13 18 18 10 8 14 13 13 15 21 16 15 15 11 13 14 9 9 11 12 12 11 11 14 14 14 17 16 16 17 18 18 17 15 15 15 14 14 15 14 14 14 13 14 16 16 17 16 17 17 16 16 17 17 15 15 16 15 16 16 16 15 15 14 13 12 12 12 12 12 12 12 11 11 12 11 10 11 11 12 12 12 10 10
18 18 16 11 10 16 14 16 16 11 12 17 13 20 19 13 16 15 13 7 4 9 11 15 11 13 12 18 17 17 17 17 17 17 16 17 16 14 14 13 13 14 14 14 15 16 16 17 17 17 15 17 17 15 16 18 18 17 15 16 16 16 16 15 16 14 14 13 12 12 12 12 13 13 12 11 11 10 12 13 12 12 12 11 11 11
18 19 18 11 13 16 18 21 18 20 15 12 13 17 10 17 15 10 11 14 19 9 6 13 13 17 13 18 11 16 14 16 17 16 16 16 17 15 15 16 18 16 14 16 16 17 17 17 16 18 17 18 18 18 17 17 18 18 17 16 16 15 15 15 15 14 14 15 14 13 12 12 13 13 13 12 12 13 14 14 13 12 11 12 11 11
18 10 14 18 11 18 22 26 22 23 21 20 19 18 16 14 13 17 13 14 12 11 9 10 11 16 17 14 12 14 13 14 15 16 15 15 14 14 11 12 12 15 15 15 15 16 18 16 15 17 16 17 17 17 17 18 18 19 18 18 19 18 18 17 16 16 15 13 14 13 13 13 13 13 13 12 13 13 13 12 11 11 11 11 12 12
17 22 18 17 20 21 17 18 15 19 21 20 21 20 19 17 15 13 10 11 11 12 8 9 11 17 21 12 14 14 13 14 14 15 14 14 14 11 12 11 11 13 12 10 11 14 15 15 15 17 18 17 18 18 18 18 17 18 18 19 19 19 19 18 19 17 16 15 14 14 14 13 13 14 14 14 14 14 15 13 13 12 12 13 13 13
17 17 22 18 24 19 13 12 9 12 13 14 18 16 18 15 15 16 11 15 12 10 12 11 11 16 12 13 12 13 14 13 12 11 12 12 10 11 12 12 11 10 10 11 10 12 12 13 14 17 17 18 18 17 17 17 18 18 17 18 18 19 18 18 18 18 17 16 15 15 14 13 14 14 14 14 14 15 16 14 13 14 14 14 14 13
8 25 23 23 18 14 12 12 11 12 16 20 21 18 18 20 18 17 13 12 14 12 12 11 7 17 15 13 13 14 12 11 11 11 10 11 12 11 12 12 12 12 11 10 11 10 11 13 13 15 16 19 18 16 18 17 17 17 17 18 18 18 18 17 15 16 17 16 16 15 15 15 14 14 15 15 16 15 15 15 14 14 14 14 13 14
26 24 24 21 20 22 17 16 16 13 18 22 22 22 20 17 15 12 12 10 13 15 12 14 9 14 18 14 15 17 17 16 16 15 9 14 12 11 12 12 12 12 12 12 12 12 11 12 14 16 17 17 18 18 16 17 17 17 17 17 18 17 17 16 15 16 16 16 16 16 16 16 15 15 16 16 15 15 15 15 15 14 15 15 14 14
25 17 26 24 21 19 21 21 25 25 24 21 16 15 19 20 19 17 14 15 17 12 13 13 13 19 17 15 18 18 19 17 15 15 13 13 14 15 15 14 13 12 13 12 12 11 11 12 14 13 13 15 16 17 17 17 17 17 17 17 15 16 15 17 16 16 16 16 17 17 17 17 16 17 17 17 17 16 16 15 15 15 15 15 15 14
18 16 25 27 25 23 24 21 11 14 20 27 21 21 21 21 21 19 13 15 18 14 16 16 14 10 16 17 18 19 19 18 18 16 17 17 15 15 15 15 14 13 13 12 11 11 11 10 11 11 11 12 13 14 15 16 18 17 16 16 16 15 15 15 15 16 16 16 17 17 17 18 18 18 17 17 17 16 16 16 15 16 16 15 15 16
15 20 24 27 28 21 13 12 13 16 20 22 20 21 21 21 21 20 21 20 14 21 18 14 11 15 14 15 16 18 18 17 18 17 17 18 18 16 18 16 12 16 14 14 13 12 11 10 10 10 11 11 13 14 14 15 16 16 16 17 16 16 15 15 15 16 16 17 17 18 18 18 17 17 18 17 17 17 17 16 16 16 16 16 16 16
22 21 22 23 26 11 10 8 11 16 19 17 20 20 22 22 21 23 23 20 17 18 19 12 14 15 16 14 14 17 20 19 20 19 17 18 18 19 18 18 18 17 15 15 13 12 10 10 10 10 11 12 12 14 14 15 15 15 14 15 15 15 16 15 15 16 17 17 18 19 18 16 16 16 16 17 17 17 17 17 17 16 16 16 16 16
20 24 18 24 19 15 11 12 12 17 15 18 19 20 21 24 26 26 24 21 21 17 12 10 16 18 17 13 12 15 17 18 20 19 19 20 19 18 18 17 17 16 15 14 12 12 10 10 9 10 10 11 14 15 15 15 16 16 16 16 15 15 15 15 16 17 17 18 19 18 17 17 16 16 17 17 18 18 18 18 17 17 17 17 17 17
20 15 14 22 20 18 14 12 14 17 18 21 17 17 19 21 23 23 19 13 12 15 11 9 12 16 15 14 15 13 15 19 21 22 21 19 19 18 17 17 16 15 15 14 12 11 11 10 10 10 11 13 14 15 15 14 14 13 14 14 15 15 15 16 16 17 17 19 18 17 16 17 17 17 18 18 17 17 18 19 18 18 18 18 17 18
17 11 12 21 19 17 16 17 18 17 18 20 19 19 19 20 21 21 20 17 18 18 13 11 15 20 15 13 14 15 17 22 24 23 21 20 19 18 18 17 17 15 14 14 13 12 12 12 11 10 12 12 13 13 14 13 14 13 16 14 15 15 14 15 15 17 18 18 16 16 17 17 17 17 18 17 18 19 19 18 19 19 18 18 18 18
25 23 20 20 22 17 16 16 18 19 20 22 23 23 22 21 18 18 18 14 19 15 16 12 21 11 13 16 17 17 20 22 23 25 22 20 20 20 18 19 18 16 15 14 14 13 12 11 11 10 10 10 12 14 14 14 13 16 15 13 12 12 14 16 16 17 17 16 16 17 16 16 17 18 18 18 19 19 19 20 20 20 20 20 18 17
18 24 24 24 25 17 19 17 15 21 21 22 13 13 23 23 22 20 22 19 19 21 19 14 13 12 12 13 14 18 20 23 22 21 21 21 22 19 18 19 18 18 16 15 15 15 14 13 12 12 10 10 11 12 11 12 15 13 10 11 11 14 14 15 16 16 16 16 16 16 16 16 17 18 18 18 19 19 21 21 22 20 20 19 18 19
19 24 24 25 26 20 19 17 21 20 26 14 8 10 9 10 16 21 17 16 19 22 19 13 11 10 11 10 9 12 13 16 18 21 18 21 20 20 20 21 20 19 18 17 17 17 16 15 15 14 13 14 14 12 11 13 12 10 11 11 12 13 13 13 14 14 14 15 15 14 15 16 17 18 18 19 19 19 21 22 21 21 21 21 20 20
21 26 22 19 23 18 19 22 22 24 13 12 12 10 10 8 9 13 18 20 19 21 22 20 14 12 12 12 11 12 15 18 18 17 16 16 18 21 22 21 21 20 20 19 18 17 16 17 16 16 15 13 15 16 16 15 12 13 13 12 12 10 10 11 12 13 12 14 14 15 15 16 17 17 17 18 18 19 21 21 22 22 20 19 18 16
22 23 28 18 17 19 21 24 26 12 12 14 11 15 22 20 19 21 18 22 23 21 19 20 16 13 14 13 14 16 17 19 18 16 14 15 17 19 22 23 22 23 23 21 20 19 18 17 18 17 16 17 17 18 17 16 15 14 14 14 13 12 11 10 12 13 13 14 14 15 16 16 17 17 17 17 18 20 20 20 21 20 19 19 18 18
24 26 23 21 18 19 25 25 27 19 22 23 15 12 19 10 11 12 16 19 11 16 18 18 16 16 16 16 17 19 19 21 20 20 16 16 19 21 23 24 24 25 25 24 22 21 20 19 19 19 20 19 18 16 15 14 14 15 15 14 13 13 13 13 13 13 12 14 14 14 15 16 17 17 17 16 19 20 19 19 17 17 17 19 19 17
22 20 21 26 18 14 20 28 27 21 25 16 18 17 16 13 13 10 15 21 18 19 19 18 16 17 18 21 21 22 22 23 23 22 21 20 21 23 25 25 25 25 24 23 22 22 21 19 20 20 19 19 18 16 14 13 13 15 16 14 14 14 14 14 15 14 15 14 15 15 14 15 16 17 17 18 19 18 18 18 18 17 16 18 18 20
22 26 21 29 14 25 20 26 28 26 23 17 18 18 19 17 15 16 16 15 18 18 18 17 17 19 19 20 23 23 24 22 24 25 24 22 22 22 24 26 25 25 24 24 22 21 21 21 21 20 19 18 16 14 14 14 17 16 16 15 14 15 15 15 15 16 15 15 14 14 14 14 15 17 17 19 18 17 19 17 17 16 17 17 19 20
25 21 22 23 24 24 19 27 30 22 17 12 17 20 19 14 17 19 19 14 12 14 17 17 15 17 20 22 23 24 12 16 23 30 26 24 25 24 24 24 25 24 24 22 21 15 20 19 20 21 19 18 15 15 14 15 16 16 15 14 15 15 15 14 15 16 16 16 16 16 17 16 15 16 17 18 18 18 18 17 17 16 17 18 18 19
27 21 16 19 25 28 28 29 28 17 15 17 16 20 21 20 16 20 18 11 14 15 14 15 16 16 19 20 16 11 20 24 29 29 28 26 26 25 25 25 24 23 22 20 17 18 20 21 20 20 19 16 15 14 14 14 16 14 14 14 15 14 15 16 17 17 18 18 19 18 18 17 17 17 17 16 16 17 19 17 17 17 17 17 17 18
25 25 22 24 24 23 29 26 24 31 12 17 21 15 9 16 18 15 16 10 11 13 17 15 16 17 18 18 18 22 26 28 29 29 28 28 28 28 26 25 24 23 22 19 18 18 20 21 20 19 16 16 15 16 16 15 16 15 14 17 14 16 16 17 17 18 19 18 19 17 18 17 17 17 18 18 17 18 19 17 17 16 17 17 18 19
15 25 22 25 26 31 29 30 29 18 22 24 29 23 28 16 10 15 17 16 10 13 16 16 14 17 19 22 25 26 26 28 28 29 28 27 26 26 24 23 22 21 20 19 19 18 18 19 19 18 16 16 16 16 16 15 16 15 15 14 15 15 15 16 17 18 18 17 17 17 18 18 17 17 17 17 19 18 19 18 17 17 17 17 18 18
14 13 17 19 19 24 25 22 12 8 22 29 14 11 17 14 9 10 10 17 19 15 13 16 19 19 21 25 26 27 28 26 28 27 28 26 26 25 25 23 22 21 21 19 18 16 16 19 17 17 16 16 15 15 15 15 15 13 14 14 15 17 18 18 18 18 18 18 18 17 18 18 17 18 18 18 18 18 18 18 18 20 19 18 18 19
13 11 13 15 16 9 9 11 8 9 18 18 11 10 12 14 10 9 12 17 11 15 15 19 21 23 26 26 30 26 28 28 28 26 26 26 25 23 22 22 21 21 21 20 18 16 17 18 16 16 16 15 14 14 14 14 14 15 14 16 16 18 19 19 20 20 20 19 19 19 20 20 18 19 20 18 18 18 17 18 19 20 20 20 20 19
16 20 15 20 13 16 20 11 8 10 11 13 13 10 9 8 12 10 10 13 16 17 18 20 24 25 26 27 28 29 28 26 27 25 25 26 25 22 21 21 21 20 20 19 17 15 16 15 17 16 15 14 12 13 13 13 14 15 15 16 18 18 19 19 19 20 19 20 21 19 19 20 21 24 22 19 19 20 19 18 17 18 18 19 20 19
12 24 24 18 14 23 13 14 12 10 7 8 12 13 11 13 12 10 12 15 18 19 21 23 25 26 26 28 29 30 28 27 28 26 26 24 23 22 22 22 21 21 19 17 15 15 15 15 15 14 13 13 12 13 14 15 15 16 16 17 17 18 19 18 19 21 20 21 20 21 21 22 15 22 24 23 22 23 21 19 18 19 20 21 21 20
27 23 15 14 22 13 9 13 16 11 11 13 10 8 10 14 17 16 17 20 21 24 24 23 22 26 26 28 28 29 29 26 25 25 25 22 22 21 22 22 21 20 18 16 15 14 15 14 15 13 12 12 12 12 13 14 14 15 14 16 16 17 18 19 18 19 20 21 21 22 21 22 24 25 25 25 24 24 23 22 21 21 21 18 17 19
25 21 21 19 17 15 17 17 19 18 16 18 18 15 13 13 18 21 21 22 24 26 26 26 24 23 26 27 27 28 28 27 25 23 22 22 22 22 22 22 21 20 19 17 16 15 15 13 13 12 12 13 12 12 13 12 13 14 15 16 16 17 18 19 20 20 21 22 22 23 23 24 26 25 25 26 26 26 25 12 14 17 23 22 12 14
18 18 20 18 17 15 19 16 12 17 19 14 20 19 17 17 20 23 23 24 24 24 26 28 29 27 26 24 25 27 26 26 24 24 23 23 23 22 23 21 21 20 19 16 15 14 14 13 13 12 12 12 12 12 13 12 13 14 15 16 17 17 19 20 21 22 23 23 23 23 25 26 26 26 26 26 26 26 26 27 21 17 19 16 16 12
Wind_Speed
5 6 5 4 3 4 5 5 2 3 2 2 2 3 3 3 7 6 4 6 5 4 4 4 3 3 6 7 7 7 8 8 8 8 7 7 7 7 7 6 5 5 3 4 4 6 8 8 8 7 7 7 6 6 5 5 5 4 4 3 3 3 3 3 3 3 2 3 3 2 2 2 1 2 1 1 1 2 2 3 4 4 3 4 4 5
6 6 4 4 2 2 5 5 5 4 2 2 2 3 5 4 7 5 5 5 5 7 7 2 4 5 4 7 8 8 8 9 9 9 8 8 7 6 6 5 5 4 3 4 5 7 8 8 9 8 6 7 7 6 6 6 5 5 4 4 3 3 3 3 3 2 2 3 3 2 2 2 1 2 2 1 1 1 1 2 3 3 3 4 3 4
5 6 1 1 1 0 1 6 6 5 3 4 5 4 4 4 6 5 4 4 5 5 4 4 4 6 7 7 8 9 8 8 8 8 8 8 8 7 7 6 5 5 5 5 5 7 8 9 10 8 6 6 6 6 6 6 6 6 5 5 4 3 2 2 2 4 4 3 2 3 2 2 1 0 3 3 2 1 3 1 3 2 3 3 4 3
5 4 2 3 2 4 6 6 7 6 5 4 4 6 3 6 6 7 6 6 6 5 1 4 5 3 6 7 8 8 9 8 8 8 8 7 7 7 7 6 6 7 6 7 7 8 8 9 9 8 7 7 6 6 6 6 6 5 5 4 4 3 3 2 2 3 2 2 1 2 3 2 4 3 1 2 2 2 2 2 1 2 2 3 4 5
7 5 3 4 5 6 6 7 7 6 5 5 3 2 4 6 3 5 7 6 5 6 5 6 7 7 6 9 8 9 8 8 8 9 8 7 7 6 4 4 6 6 6 6 8 8 8 9 10 9 8 7 7 6 6 6 5 3 5 4 4 3 2 2 2 2 2 3 4 3 3 3 3 4 3 2 3 1 1 3 1 2 3 4 4 5
6 3 4 6 7 6 5 6 7 5 4 4 6 4 2 1 2 4 6 8 6 6 7 1 5 3 5 5 6 8 9 10 9 10 11 10 9 8 8 7 6 6 5 6 7 8 9 9 8 8 8 8 7 7 6 5 5 4 4 5 4 2 1 2 3 2 2 2 3 3 3 3 3 3 2 2 2 2 2 3 3 4 3 4 4 5
2 3 7 8 7 7 4 3 5 6 2 4 7 4 5 4 3 4 6 6 4 1 6 5 3 3 4 6 6 6 8 10 10 11 11 10 10 9 9 8 7 7 7 6 6 7 8 8 9 9 9 9 8 7 6 6 5 5 4 4 4 2 2 2 2 2 2 2 2 3 4 3 3 3 2 1 2 3 3 1 3 4 3 4 4 4
3 7 8 7 8 6 6 3 5 6 4 2 6 4 5 6 5 5 5 4 3 2 3 4 4 5 5 6 3 4 7 7 8 10 11 10 10 10 9 8 7 7 6 6 7 7 8 9 9 10 10 9 7 7 7 6 6 6 5 5 4 3 2 2 2 3 2 2 2 2 3 4 4 3 3 2 1 2 3 3 4 4 3 2 3 4
7 7 8 9 7 6 6 11 6 7 4 6 4 3 5 6 5 5 4 3 1 3 5 4 2 4 3 6 4 4 7 8 7 7 9 10 9 9 10 9 8 8 8 6 7 8 8 9 9 8 9 8 8 8 8 7 6 6 6 5 5 4 3 3 2 2 2 2 2 2 2 3 3 2 3 2 2 3 2 4 3 4 4 3 3 4
3 3 6 5 2 4 3 3 2 8 7 7 4 3 2 2 4 4 5 4 3 6 3 3 1 5 5 3 5 5 3 3 4 5 5 4 7 9 10 9 9 8 7 7 7 8 8 8 8 7 7 8 8 7 8 7 7 7 6 6 6 5 4 3 3 2 2 2 2 2 2 3 3 2 2 3 2 2 2 3 2 2 2 3 3 3
5 2 4 5 6 3 5 5 1 6 3 6 6 7 6 6 5 5 5 3 4 3 3 3 1 5 1 2 2 2 2 2 3 4 4 5 5 7 7 9 9 9 9 8 8 8 9 8 8 8 8 8 8 7 8 7 7 7 7 7 7 6 4 4 3 3 3 3 3 3 2 2 3 3 3 3 3 2 2 2 1 1 2 3 3 3
6 5 6 4 2 5 6 8 5 2 5 7 6 5 7 5 4 6 5 4 4 2 4 2 1 2 3 4 2 4 4 3 3 4 5 6 7 7 8 8 9 9 9 9 9 9 10 9 9 9 9 9 9 8 8 8 8 7 7 7 7 6 5 4 4 3 3 3 3 3 3 3 3 3 2 2 3 3 3 0 1 1 2 2 2 2
8 7 5 6 5 7 9 6 6 5 5 6 4 5 3 2 4 2 4 3 1 2 6 4 1 4 3 2 3 3 4 5 4 3 6 6 7 7 8 8 8 8 9 9 9 9 9 9 10 10 10 9 9 8 9 9 8 7 7 8 7 7 6 5 4 4 4 4 4 4 3 4 2 3 2 3 2 1 1 2 2 2 2 2 2 2
4 6 7 7 6 9 9 7 6 5 7 6 6 2 1 2 2 2 2 2 3 4 4 2 2 3 3 3 3 4 4 4 5 3 3 5 5 6 8 8 7 8 9 8 9 9 9 9 9 9 10 10 8 9 9 9 8 7 7 8 7 7 6 5 5 4 5 4 4 3 4 3 3 3 2 2 2 1 2 2 2 2 2 2 2 2
6 7 9 10 7 12 11 7 5 3 8 6 3 2 1 1 2 1 1 1 3 3 4 4 5 1 2 5 3 5 6 5 5 5 6 5 5 5 5 6 7 7 7 7 9 9 9 9 9 9 9 9 8 9 9 8 8 8 7 8 8 7 7 6 5 5 5 4 4 4 4 3 3 3 3 2 1 2 3 2 2 2 2 2 2 3
7 3 6 11 3 13 12 7 3 1 5 3 2 2 4 1 1 1 2 3 2 3 4 6 1 2 3 5 4 4 5 5 6 7 7 8 6 6 6 5 6 6 7 7 8 8 9 9 9 8 8 8 8 9 8 8 8 8 8 8 8 8 7 7 6 5 5 5 4 5 4 4 4 3 3 2 2 3 3 3 3 2 2 3 2 3
4 5 8 8 4 7 9 6 7 5 4 6 5 5 1 3 3 0 2 1 3 4 3 1 4 4 5 6 7 7 7 7 7 8 8 8 7 6 4 5 6 6 6 6 7 7 9 9 8 8 8 8 8 9 9 9 9 9 8 8 9 8 7 7 7 6 5 5 5 5 5 5 4 5 4 3 3 4 3 3 3 3 3 2 3 3
4 4 6 8 9 3 1 7 4 6 3 5 5 4 4 0 5 3 1 2 3 2 3 2 1 3 4 4 6 8 8 9 9 9 8 7 7 7 6 6 6 6 6 6 6 7 8 8 9 8 8 9 9 9 9 9 8 8 8 8 9 9 8 8 7 6 5 5 5 5 5 5 5 4 4 4 4 4 4 4 4 4 4 4 3 3
7 6 6 3 2 8 6 6 6 4 4 6 4 6 7 4 7 5 2 2 1 3 1 5 1 2 2 7 7 8 8 8 9 8 8 8 8 7 6 6 6 7 6 6 7 7 8 8 9 8 8 9 9 8 8 9 9 8 8 8 8 9 9 8 7 7 6 6 4 4 5 5 5 5 4 4 4 4 4 5 5 5 4 4 4 4
6 6 6 4 5 7 8 8 6 7 7 5 3 5 1 5 4 2 1 4 5 3 1 3 2 6 1 6 3 7 7 8 8 8 7 8 8 6 6 7 8 8 6 7 7 8 8 8 9 9 9 9 10 9 8 9 8 9 9 9 8 8 8 8 8 7 7 6 6 5 4 5 5 5 5 5 5 5 5 6 5 5 5 5 4 4
6 2 3 6 4 7 7 8 8 7 7 7 7 6 5 4 3 5 2 4 3 1 2 1 2 5 6 4 3 6 6 7 7 7 7 6 6 6 4 4 5 7 7 7 7 7 8 8 8 8 8 8 8 8 8 8 9 9 9 9 9 10 9 9 8 8 7 5 6 6 6 5 5 6 5 5 5 6 5 5 5 4 4 4 4 4
4 8 6 6 7 7 7 8 7 7 9 7 7 6 5 5 6 5 2 2 2 3 2 2 2 4 5 3 3 6 5 6 6 7 6 6 6 5 4 4 4 5 5 4 4 6 7 7 8 8 8 7 8 8 9 8 8 9 9 9 9 9 9 9 9 8 7 6 6 7 6 6 6 6 6 6 6 7 6 5 5 5 5 6 6 5
5 6 8 6 9 7 4 5 1 4 5 5 7 6 7 5 5 5 3 5 2 1 3 3 3 6 4 4 4 4 5 5 5 4 4 4 3 4 4 5 5 4 4 5 4 5 5 6 7 8 9 9 9 8 9 8 8 8 9 9 8 9 9 8 8 8 7 7 7 7 6 6 6 6 7 7 7 7 7 6 6 6 6 6 6 5
2 7 9 9 8 5 4 5 4 5 8 9 9 7 6 7 7 6 3 0 2 2 3 3 2 4 6 5 5 6 5 4 4 4 3 3 4 4 5 5 6 6 5 4 4 3 4 5 6 7 8 9 9 8 9 8 8 8 8 8 8 9 9 8 7 7 8 7 7 7 7 7 6 7 7 7 7 8 7 6 6 6 6 6 5 5
6 8 10 8 6 7 7 6 6 5 7 8 8 9 10 7 7 2 1 1 4 4 4 4 1 4 7 6 6 8 9 8 8 6 3 6 5 4 5 5 5 5 5 5 5 5 5 5 7 7 8 8 8 8 8 8 8 8 8 8 8 7 8 7 7 7 7 8 8 8 8 8 7 7 8 8 7 8 7 7 6 6 7 6 6 6
10 7 10 8 8 7 8 8 9 10 10 8 8 6 10 11 10 7 5 5 6 3 6 4 1 6 8 7 9 9 10 9 7 7 5 5 7 7 6 6 6 5 5 5 5 5 5 5 5 5 6 6 7 7 8 8 8 8 8 8 7 7 7 8 7 7 7 7 8 8 9 8 8 8 9 9 8 8 7 7 7 7 6 7 7 6
5 6 11 12 11 9 9 10 4 6 8 11 12 12 11 12 11 9 4 4 6 4 6 7 5 1 8 9 9 10 10 9 10 8 8 8 8 8 7 7 6 6 6 6 5 4 4 3 3 3 4 3 5 6 6 7 8 8 7 8 8 7 7 7 7 7 8 8 8 8 9 9 8 8 8 8 8 7 7 7 7 7 7 7 7 7
5 8 13 17 17 11 5 2 5 8 8 12 11 12 12 12 12 11 9 7 4 3 6 5 4 6 3 7 8 10 9 9 9 9 8 9 9 8 9 8 8 8 7 6 6 5 5 4 4 3 3 3 4 4 5 5 6 7 7 7 7 7 7 6 7 7 8 8 8 8 8 8 8 8 8 7 7 7 7 7 7 7 7 7 7 7
9 6 13 14 16 5 0 1 4 7 10 8 10 10 12 13 12 13 13 11 7 6 3 3 4 6 5 3 7 9 10 9 10 10 9 9 9 10 10 9 9 8 8 7 6 5 4 4 4 3 3 3 4 4 4 5 5 5 5 6 6 6 7 7 7 7 8 8 8 9 8 7 7 7 8 8 8 8 8 8 8 7 7 7 7 6
5 9 9 14 11 9 4 5 5 9 7 9 10 10 11 13 15 15 14 12 12 9 5 3 6 7 6 1 5 7 9 9 10 10 10 11 10 10 9 9 8 8 7 6 5 5 4 4 3 3 3 2 3 4 4 4 5 5 6 5 5 5 5 6 6 7 7 8 8 8 8 8 7 7 8 8 9 9 8 8 8 8 8 8 8 8
7 2 7 11 9 9 7 5 7 10 10 11 9 9 11 12 13 14 11 6 6 7 5 4 6 8 2 6 7 6 7 9 11 12 12 10 10 10 9 8 8 7 7 6 5 4 4 4 4 4 3 3 3 3 3 3 3 2 3 3 4 5 5 6 6 6 7 8 7 7 7 7 8 8 9 8 8 8 9 9 8 8 9 9 9 9
7 1 4 9 7 7 8 9 10 9 10 11 10 11 10 12 12 10 7 8 9 9 7 5 7 7 4 6 7 8 9 12 14 13 11 10 10 10 9 9 9 7 6 6 5 5 5 5 4 4 3 3 3 3 3 2 2 2 2 2 2 2 3 4 5 6 6 7 6 7 7 7 7 8 8 8 9 9 9 9 9 9 9 9 9 9
10 6 6 8 9 6 8 8 10 10 10 10 11 11 12 12 10 9 9 7 10 7 6 5 8 1 3 7 8 9 11 13 13 13 12 11 11 10 10 10 9 8 7 5 5 5 4 4 4 3 2 3 2 2 3 2 2 2 1 1 1 1 2 3 4 4 5 5 5 6 5 6 7 8 8 9 9 9 9 10 10 10 10 10 9 8
9 12 9 10 8 5 10 9 8 9 8 7 0 5 13 13 12 10 10 10 10 9 6 4 2 5 5 5 7 10 11 12 12 11 11 10 11 10 10 10 10 9 8 7 7 7 6 5 5 5 4 3 2 3 4 4 3 3 3 2 2 1 1 2 2 3 4 4 4 5 6 6 7 9 9 9 9 10 10 11 11 11 10 9 9 10
10 11 10 10 8 6 8 8 8 8 9 3 2 3 2 2 7 12 10 8 10 12 11 5 4 3 4 3 2 5 6 7 9 11 10 11 11 11 11 11 11 10 10 9 9 8 8 8 8 7 6 6 6 5 4 5 4 3 3 3 2 2 1 0 2 2 3 4 4 5 6 6 7 8 8 8 9 9 10 11 11 11 10 9 10 10
8 11 8 5 6 4 6 7 6 8 5 6 5 4 3 1 2 4 9 10 9 11 12 11 5 5 5 5 4 5 7 9 9 8 8 8 10 11 12 11 12 11 11 10 10 9 9 9 9 8 8 6 7 7 7 6 5 5 5 4 4 3 2 1 1 1 2 3 4 5 5 6 7 7 7 8 9 9 9 10 11 10 9 9 8 7
12 10 10 4 5 6 7 10 9 5 4 7 4 6 8 8 9 10 7 11 13 11 10 9 8 6 6 6 7 7 9 9 8 6 6 7 9 11 12 13 13 13 13 12 11 11 10 10 10 9 9 9 9 8 8 7 6 6 6 5 5 4 4 3 3 3 3 3 4 5 5 6 7 7 7 8 8 9 10 10 11 10 9 10 9 8
13 12 9 7 3 6 10 9 9 6 8 9 8 6 11 4 5 7 7 7 4 7 10 9 9 8 8 8 9 10 10 10 8 8 7 8 10 13 13 14 14 15 14 14 12 12 11 10 10 10 10 10 10 8 7 6 6 6 6 6 5 5 4 5 5 5 5 5 5 5 5 6 7 7 7 7 9 9 9 9 8 8 7 9 8 8
12 11 9 11 5 4 7 10 8 7 6 6 10 10 10 6 7 5 5 8 7 9 10 9 8 9 9 10 11 12 10 9 9 9 10 10 12 13 14 14 14 14 14 13 12 12 12 11 11 11 11 10 10 8 7 7 6 6 6 6 5 5 6 6 6 6 6 6 6 6 6 6 6 7 8 8 9 8 9 9 9 8 7 8 8 9
11 11 8 12 6 8 8 9 10 5 4 8 10 10 10 9 9 7 6 2 9 9 10 9 8 9 9 11 12 11 10 9 9 11 13 13 13 12 14 15 15 14 14 13 12 12 12 12 11 11 11 10 9 7 7 7 7 7 6 6 5 6 6 6 6 7 6 7 6 6 6 5 6 7 8 9 9 8 8 8 8 8 8 8 8 8
9 7 9 10 8 11 12 9 10 6 4 6 9 11 11 8 8 7 7 2 5 7 8 8 8 8 10 11 10 9 3 6 10 17 15 14 15 14 13 14 14 14 14 13 11 10 9 9 10 10 10 8 7 7 6 6 6 6 6 6 6 6 6 6 7 7 7 7 7 8 8 7 7 8 8 8 8 8 8 7 7 7 7 8 7 7
11 8 5 9 11 12 12 11 9 4 4 8 8 11 12 10 5 7 2 5 7 7 7 8 8 8 9 10 7 3 9 13 18 17 17 15 15 15 15 15 14 13 13 12 9 8 9 10 11 11 10 8 7 6 6 6 6 6 6 6 7 7 6 7 8 8 8 9 9 9 8 8 8 8 8 7 7 8 8 8 7 7 7 7 7 8
6 5 8 9 7 7 10 9 8 12 3 9 13 7 2 6 4 4 7 4 5 6 9 7 6 8 9 9 9 12 15 17 17 17 17 17 17 16 16 15 14 13 12 11 9 8 8 9 10 9 8 7 7 7 7 7 7 7 6 7 7 8 8 8 8 9 9 9 9 8 9 9 9 8 7 8 8 9 9 8 8 7 7 8 9 9
4 5 5 8 8 7 7 8 5 3 10 14 15 8 12 4 3 1 5 7 3 6 7 7 6 9 10 12 13 14 16 17 17 17 17 16 16 15 14 14 13 12 11 10 9 9 9 10 9 8 8 7 7 7 7 7 7 7 6 7 6 7 7 7 8 8 8 8 8 8 8 8 8 8 8 9 9 9 9 9 9 8 8 8 8 8
5 2 4 2 1 5 4 6 3 2 12 15 6 4 10 7 2 1 1 5 7 5 6 7 10 10 12 15 16 16 15 15 17 16 16 15 15 14 14 13 12 12 12 11 10 9 8 9 9 8 8 7 8 7 7 6 6 6 7 6 7 8 8 8 9 9 9 9 9 8 8 8 8 8 9 8 8 9 8 9 9 9 9 9 8 8
4 2 1 2 5 3 3 4 2 3 10 10 4 3 5 8 4 3 3 5 4 7 6 9 11 13 15 16 16 14 15 17 17 16 16 15 15 14 13 12 11 12 12 11 10 9 9 9 9 8 8 8 7 6 6 5 5 6 6 7 7 8 9 9 10 10 10 9 9 9 9 10 9 9 11 9 8 8 8 8 8 8 8 9 9 9
8 10 4 5 1 1 3 5 1 2 5 7 5 3 3 2 5 3 3 4 8 8 9 11 13 14 15 16 16 17 17 16 16 14 14 14 14 13 12 12 12 11 11 11 9 8 8 8 7 8 7 7 5 5 5 5 6 6 7 7 8 9 9 9 10 10 10 10 10 10 9 10 9 11 11 10 9 9 8 7 7 7 7 8 8 9
1 13 10 8 5 7 2 3 2 3 2 2 4 4 4 6 6 4 5 7 9 10 11 13 15 15 15 16 18 18 17 16 16 15 14 13 12 12 11 12 12 12 10 9 8 7 7 7 7 7 6 5 4 4 5 6 6 7 7 7 8 9 9 9 10 10 10 11 10 9 10 10 12 12 11 11 10 10 9 8 8 8 8 8 8 8
13 12 4 6 6 3 2 2 1 3 4 6 4 2 3 6 8 8 10 11 12 14 14 13 13 15 15 17 17 17 17 15 15 15 14 12 11 11 11 12 12 11 10 9 8 7 7 6 7 6 5 5 4 5 5 6 6 7 7 7 7 8 9 9 10 10 11 10 10 10 10 10 11 12 12 12 12 11 10 10 9 9 10 9 7 7
11 8 9 8 5 4 1 0 5 3 3 8 10 8 4 5 9 11 11 13 14 15 15 15 14 14 15 16 16 16 17 15 15 14 13 11 12 13 13 12 11 11 10 9 8 8 7 7 6 5 5 5 5 5 5 5 5 6 6 7 7 8 8 10 10 10 10 10 10 11 11 11 12 12 12 12 12 12 12 11 12 11 10 10 6 6
8 9 7 6 3 3 9 9 6 7 9 4 9 10 9 8 10 12 14 14 14 15 16 17 18 16 15 14 14 16 15 14 15 14 13 12 12 12 12 13 11 10 9 9 8 7 7 6 6 5 5 5 4 5 5 4 5 5 6 7 8 8 9 10 10 10 10 11 11 11 12 12 12 12 12 12 12 12 12 12 10 13 16 14 11 8
Wind_Direction
179 213 207 217 216 191 193 215 132 116 43 102 206 189 119 135 118 119 143 136 193 217 199 162 180 150 144 144 151 172 182 204 213 215 214 216 210 207 202 198 196 200 218 144 166 169 177 174 170 178 173 169 168 174 172 175 177 183 189 172 198 187 204 238 235 223 243 220 209 234 271 281 170 271 330 160 264 295 55 352 354 359 4 357 5 353
229 243 235 270 278 212 199 175 179 202 220 261 162 212 151 206 129 128 123 158 160 252 124 175 162 159 162 147 151 163 183 190 201 200 202 200 193 202 203 205 197 176 160 165 167 172 175 175 171 175 177 169 176 175 181 185 181 184 188 195 188 193 203 224 243 266 237 254 261 254 232 258 243 199 239 9 163 235 36 332 3 345 349 1 356 358
196 245 268 239 52 237 200 174 197 211 203 203 224 160 192 152 105 140 154 153 169 245 132 159 213 174 173 180 167 178 190 179 188 189 187 194 193 195 197 194 194 187 189 185 183 176 176 179 177 175 180 177 183 175 187 185 187 186 191 199 202 202 226 206 221 235 228 228 250 264 313 271 285 269 329 330 9 344 314 356 327 339 342 348 339 350
231 144 42 101 169 181 181 193 193 211 217 213 178 195 161 118 196 155 166 183 176 233 43 173 245 189 172 173 181 191 189 189 188 195 197 188 194 201 192 182 188 193 192 187 184 176 177 180 180 181 179 180 180 179 180 183 184 187 199 194 199 205 225 237 207 235 235 252 250 242 269 282 289 334 1 266 252 260 258 285 13 313 337 338 327 356
332 32 77 160 168 181 177 182 193 209 192 182 247 268 113 160 189 335 131 176 189 215 248 256 247 203 176 179 184 182 197 201 189 203 211 204 200 195 200 198 189 196 188 189 177 174 173 180 186 187 181 175 185 185 179 175 178 182 188 189 196 210 227 226 175 214 237 199 214 218 215 242 237 240 250 272 274 248 262 255 264 354 328 319 332 338
241 123 140 166 183 187 165 186 207 214 209 154 186 227 352 96 161 149 139 173 195 198 196 243 18 161 146 184 184 162 187 207 202 209 209 205 203 195 201 203 199 204 189 194 183 178 181 184 181 182 181 186 187 186 178 170 174 170 172 179 185 196 211 206 183 205 234 215 230 208 218 217 226 252 244 274 302 290 279 328 1 291 332 324 328 326
63 163 185 186 179 191 193 238 174 226 224 235 109 215 206 216 211 181 169 219 221 154 123 159 175 125 195 164 162 185 201 204 198 214 219 210 205 202 203 200 190 194 180 184 178 180 177 181 181 183 188 191 189 180 167 168 166 170 166 177 182 191 182 187 191 201 231 235 238 245 256 265 280 297 297 331 300 279 290 291 299 322 314 310 317 325
202 169 185 189 201 144 214 236 172 219 260 125 92 190 201 192 203 200 209 253 4 47 117 244 261 308 133 120 122 184 225 220 209 208 219 220 212 205 201 202 180 185 176 176 177 178 178 180 185 188 186 191 184 172 164 164 169 171 177 177 179 183 183 167 181 199 239 273 248 257 257 264 267 272 301 319 281 269 272 277 290 311 302 301 335 329
199 163 188 189 199 197 153 222 166 189 240 68 139 173 181 202 195 198 222 231 134 260 179 163 199 236 111 109 133 187 203 206 205 210 204 203 209 210 204 198 184 182 169 177 166 175 177 182 187 184 182 180 171 170 169 170 169 172 177 181 179 182 185 154 181 217 198 244 287 275 266 256 261 282 281 278 280 291 286 285 297 301 319 320 338 330
148 235 198 199 211 206 99 89 174 191 224 117 134 170 144 193 200 204 221 202 182 243 141 130 164 284 95 98 154 148 258 174 187 178 179 155 188 199 196 192 186 174 168 178 164 166 171 176 178 178 168 166 166 172 168 166 166 172 174 183 185 185 191 163 176 197 204 219 239 246 257 280 279 265 263 283 294 272 265 267 273 305 300 336 313 337
80 110 336 242 202 17 104 87 150 172 35 134 170 175 170 181 187 194 229 237 206 240 92 110 162 313 97 120 100 188 86 51 134 166 145 145 146 172 175 183 180 178 176 174 165 160 159 161 163 166 168 163 161 165 168 167 171 175 177 181 189 188 188 168 187 193 197 205 216 241 259 268 274 271 272 277 272 256 242 276 294 287 335 314 327 318
199 156 197 183 74 112 133 122 117 107 169 179 188 169 160 148 170 189 184 209 235 153 119 121 155 264 293 111 161 94 141 184 212 140 157 148 148 151 164 178 178 178 177 171 164 160 151 151 161 167 170 168 166 165 173 177 176 183 179 179 189 188 188 182 189 194 199 198 205 228 237 246 265 291 275 274 295 311 309 293 261 286 272 302 315 305
203 212 142 137 183 174 161 150 150 166 172 224 212 202 231 128 200 153 187 186 162 116 114 126 192 221 209 35 64 121 172 159 193 179 149 164 131 147 161 164 174 171 177 174 168 157 160 167 169 175 175 172 172 177 180 179 181 184 179 181 189 189 188 189 189 196 197 201 210 219 219 225 236 264 287 285 272 282 285 306 294 280 294 301 305 318
173 132 174 157 174 209 205 194 144 192 194 224 210 199 163 155 158 108 77 88 129 116 112 161 166 276 39 114 114 151 127 118 145 159 130 125 119 139 148 160 161 172 179 175 161 166 169 175 175 175 176 179 178 179 180 178 182 183 177 184 192 189 187 188 190 199 202 203 216 216 236 239 224 222 230 255 271 249 254 254 262 286 299 303 282 286
187 191 196 166 198 180 211 235 165 207 170 199 274 229 43 312 11 96 128 82 79 89 124 125 228 104 181 75 131 108 118 138 149 157 144 143 141 137 146 151 153 159 166 166 172 178 171 172 172 173 177 178 179 177 179 177 184 180 180 184 189 189 185 187 193 197 203 208 206 217 217 227 239 233 222 239 254 266 250 232 242 254 272 278 302 313
235 243 152 180 44 167 201 207 239 141 165 154 208 281 238 182 248 358 25 343 46 135 168 165 284 59 67 127 123 142 161 156 160 154 161 158 161 148 157 160 161 164 170 179 171 171 167 163 169 169 174 177 175 172 175 180 180 183 186 184 189 193 185 186 193 198 203 208 206 206 218 224 232 240 252 253 236 231 234 242 247 231 234 260 289 284
199 210 131 146 167 195 201 172 208 230 247 154 199 211 59 33 284 185 202 272 342 276 77 184 215 183 130 178 171 174 183 168 174 166 176 168 159 165 172 163 179 176 173 177 166 173 163 163 170 173 174 175 171 174 178 181 182 184 184 181 187 190 188 190 191 200 199 205 210 212 216 222 216 216 228 240 239 245 226 241 245 257 262 288 272 279
259 159 145 174 181 149 323 203 181 211 308 148 229 125 95 338 312 276 305 159 230 115 84 250 22 122 201 120 147 173 189 169 186 176 182 162 163 182 174 184 180 177 171 170 162 161 167 168 169 172 176 179 178 181 176 180 179 182 186 185 184 186 192 191 192 197 199 203 214 216 218 219 225 230 223 227 243 232 225 222 235 239 237 236 238 254
217 210 155 201 150 143 167 169 176 192 259 277 355 88 238 171 195 170 263 265 71 55 109 100 152 91 345 116 168 163 184 170 183 178 173 175 182 189 176 179 165 162 156 167 168 163 168 171 171 177 176 180 170 179 179 175 178 179 185 188 190 190 193 193 194 194 196 201 210 213 212 216 217 222 229 232 237 250 249 244 235 231 237 249 245 250
201 239 150 164 199 155 183 197 217 184 184 237 255 228 214 283 328 199 9 355 292 117 241 87 208 87 166 69 143 137 169 168 177 176 189 181 178 186 186 176 175 175 174 179 174 172 173 173 179 174 176 180 171 178 177 174 184 181 185 185 191 192 191 192 197 193 204 200 202 207 207 212 220 218 220 224 230 236 241 249 246 237 231 237 249 248
204 243 235 127 146 162 199 199 220 197 191 187 209 216 187 245 34 315 279 282 343 6 55 346 87 94 82 89 121 121 146 162 168 181 180 194 173 184 180 173 183 172 177 185 174 174 167 165 173 169 176 183 172 172 177 178 187 185 188 193 192 192 192 194 196 197 206 203 205 209 212 210 216 223 224 227 228 238 248 250 258 255 246 241 240 246
210 196 237 156 183 199 213 195 237 230 203 203 203 211 224 196 204 219 159 185 231 290 36 291 77 83 90 135 136 127 149 153 175 161 178 186 176 173 174 166 170 165 152 161 161 164 158 159 169 171 172 179 172 178 182 181 187 189 194 196 194 194 203 199 194 199 201 201 203 210 210 216 217 218 223 224 229 235 239 236 235 239 239 248 247 235
233 209 231 208 219 219 139 87 275 286 285 256 246 221 218 208 238 243 233 131 210 70 314 346 280 98 99 136 128 126 151 149 156 176 173 175 182 168 162 148 135 120 135 147 157 149 151 158 172 177 176 180 179 181 182 182 191 193 195 199 197 199 206 206 199 193 197 198 203 207 210 213 218 218 222 226 233 236 240 238 238 237 239 242 238 230
67 210 219 231 230 115 128 116 121 209 226 232 232 248 228 219 222 227 264 82 273 156 223 183 227 106 129 139 147 153 149 140 150 181 178 141 133 143 142 141 150 149 138 142 142 146 148 161 172 181 180 187 183 183 184 188 191 192 195 201 203 202 209 204 200 192 193 200 204 206 210 213 217 221 222 227 232 239 241 244 241 238 241 244 242 239
202 206 236 222 213 204 183 182 188 167 209 228 229 206 226 235 223 244 273 168 262 227 275 293 306 110 135 156 160 171 169 172 165 154 164 131 131 128 127 119 119 127 136 146 148 151 160 171 181 189 186 194 187 183 181 190 191 193 192 198 208 205 201 203 196 197 199 202 206 207 212 215 218 222 225 229 237 239 239 241 243 244 243 240 241 243
220 186 203 220 214 206 206 204 210 198 204 212 233 213 211 219 198 190 215 196 253 193 241 248 244 95 122 165 169 179 175 171 149 150 152 127 129 134 127 125 124 132 133 139 139 146 165 179 189 183 183 193 188 190 181 191 193 195 194 196 204 203 192 199 195 200 204 206 208 211 212 215 219 224 227 230 233 238 243 244 244 243 239 245 246 240
234 205 212 224 225 221 217 217 193 231 175 208 202 215 208 215 210 214 244 234 240 181 235 232 265 178 154 174 179 178 185 168 157 155 157 136 126 120 125 129 127 125 130 134 137 140 153 164 185 170 181 209 189 201 191 193 197 196 192 192 195 198 195 194 194 199 205 209 214 217 214 215 218 222 228 229 233 235 238 241 242 243 244 241 241 243
213 222 213 223 233 233 299 46 146 205 198 212 216 209 209 207 206 211 215 228 229 213 239 211 262 267 235 169 168 182 187 172 164 164 153 139 141 137 123 119 126 128 127 132 138 145 148 146 156 168 183 197 218 198 205 199 206 200 194 196 195 191 192 189 194 202 208 210 217 223 221 219 218 221 225 230 231 233 237 242 239 238 244 245 243 242
212 225 209 219 229 252 55 161 185 223 242 243 223 210 205 200 201 212 218 226 209 234 271 116 209 234 248 210 156 182 187 174 170 164 152 143 137 133 139 141 137 131 136 132 130 132 130 142 135 154 169 186 205 206 210 206 199 201 199 207 196 191 193 189 196 207 211 214 220 223 224 220 220 222 224 226 231 232 233 236 241 241 238 237 240 241
228 227 188 207 216 222 198 212 193 236 220 234 238 223 213 202 204 213 220 221 219 229 262 238 223 235 240 198 165 169 175 172 152 143 144 153 151 145 147 144 137 139 135 129 129 129 135 130 135 147 159 185 202 205 204 201 211 198 201 200 199 193 192 189 202 213 218 221 223 223 222 221 216 218 222 225 229 231 233 235 237 238 239 239 238 237
226 167 163 189 205 203 188 179 202 226 227 229 217 227 220 212 215 216 223 212 237 248 231 241 243 245 224 91 110 114 142 140 143 156 163 158 154 153 148 144 142 138 134 132 131 132 126 140 133 150 166 173 194 200 200 224 215 201 206 210 201 200 195 202 206 219 226 232 232 228 225 224 223 221 224 226 229 232 233 234 234 236 239 238 237 237
213 206 207 191 210 192 179 198 194 209 223 234 209 206 200 203 210 198 217 204 209 219 209 204 236 244 175 133 127 147 162 164 162 162 162 161 156 153 156 144 138 138 140 139 144 147 150 151 142 141 158 148 170 183 190 180 209 167 215 194 237 183 199 218 226 235 236 242 240 238 235 232 232 231 233 231 231 231 233 233 233 235 234 234 233 231
195 184 182 193 211 201 167 192 192 201 216 225 224 209 204 201 206 202 212 206 219 220 207 207 238 337 131 152 154 162 176 172 169 166 162 163 156 155 153 149 141 138 127 123 117 119 114 115 120 115 123 167 137 144 138 148 169 141 148 112 173 168 189 229 241 251 261 264 262 257 253 249 246 244 241 236 236 233 232 231 232 233 231 231 229 227
206 203 208 192 219 179 160 183 183 206 217 222 117 228 208 207 201 206 203 211 215 213 228 268 46 99 138 160 176 165 181 178 174 164 161 158 152 152 150 140 133 123 116 109 105 98 97 95 93 88 76 59 71 58 60 54 51 54 59 67 85 77 232 262 257 268 277 272 263 259 251 247 245 246 244 241 236 233 233 232 232 231 229 228 224 223
212 209 220 199 222 181 157 157 195 213 220 94 132 63 55 183 214 229 228 221 215 212 225 214 170 145 134 145 121 157 160 150 156 143 154 159 151 147 142 136 127 121 117 111 100 94 93 93 92 90 80 72 73 86 94 87 91 90 93 97 81 76 87 174 281 260 254 261 266 257 250 253 254 256 257 253 247 242 241 240 239 234 228 225 225 221
216 208 198 191 210 139 169 182 199 216 105 123 109 99 103 190 213 256 251 232 222 218 223 236 196 162 144 150 142 140 141 129 118 118 122 141 151 146 141 133 128 126 119 110 106 99 95 90 88 84 82 89 91 83 82 86 88 88 81 68 71 77 55 21 324 312 312 298 287 283 280 269 267 265 260 259 257 251 251 256 251 245 244 236 229 225
236 214 191 169 170 185 185 192 207 96 150 156 138 191 180 188 184 203 229 232 229 216 219 223 209 183 158 146 148 143 143 145 140 115 122 136 146 140 133 127 125 118 113 110 105 101 96 95 91 85 81 72 69 71 66 67 69 69 61 64 61 55 56 36 16 6 343 310 299 293 285 280 274 268 265 261 256 251 246 243 247 239 231 232 220 215
220 225 190 179 202 218 204 202 212 215 233 203 195 152 181 176 195 201 237 251 185 206 201 210 211 191 173 150 150 152 155 161 162 151 144 144 140 130 123 121 118 114 111 110 109 107 102 98 95 90 86 84 75 71 75 76 75 72 67 60 52 48 41 28 24 7 357 339 330 312 300 290 285 282 277 267 260 259 255 252 250 245 232 225 214 209
215 239 231 212 170 201 203 214 209 217 220 225 163 144 152 149 164 141 216 246 175 189 185 196 193 180 172 159 153 162 176 192 178 151 149 144 135 131 127 122 116 114 115 115 113 107 102 97 94 95 91 85 83 77 70 64 65 66 70 59 48 42 36 22 10 358 357 342 334 325 318 306 296 292 287 281 276 269 265 259 255 250 230 228 229 229
205 211 205 219 180 190 200 210 216 209 219 139 130 136 143 152 147 177 216 230 133 173 169 185 185 170 173 163 165 177 191 215 178 146 145 144 135 127 122 119 117 115 110 106 102 102 104 107 104 94 88 86 85 84 79 78 74 67 57 51 42 37 29 14 360 345 342 336 328 318 308 299 294 290 288 287 285 279 273 269 266 255 247 245 242 237
195 202 210 211 191 186 200 217 228 203 113 125 136 133 135 146 167 202 214 122 146 166 164 174 179 166 162 165 175 192 133 17 108 128 137 133 127 119 114 111 108 108 106 103 103 111 107 99 94 92 91 87 82 77 72 69 70 67 59 43 34 28 12 357 349 339 336 328 323 325 329 327 317 308 298 291 287 288 283 277 272 267 257 254 248 244
199 193 203 215 212 210 201 220 220 214 91 127 138 137 144 151 181 218 96 85 140 153 158 166 159 159 166 168 177 109 107 111 114 123 125 124 116 111 109 106 101 95 92 92 102 107 104 102 96 91 86 80 80 76 69 63 60 53 44 36 27 10 355 350 343 333 331 328 328 331 329 326 327 319 305 298 300 297 291 289 282 273 266 259 253 248
186 196 198 196 199 202 200 219 212 219 150 158 127 128 217 210 185 90 118 104 112 145 152 150 152 149 158 140 118 115 120 123 125 125 124 121 122 121 118 117 118 119 117 121 124 113 110 102 93 89 85 74 62 53 52 52 48 41 33 28 11 359 351 347 338 337 337 335 329 337 331 329 326 322 323 324 316 305 299 298 293 283 274 281 279 266
121 235 217 207 205 201 189 203 206 167 133 165 157 165 196 209 45 159 171 142 132 142 147 140 138 146 145 133 129 123 121 120 121 124 122 120 119 120 120 120 121 124 125 117 110 104 96 95 95 91 78 70 60 53 48 44 46 34 24 18 357 352 344 344 343 342 338 335 337 341 333 333 334 338 328 330 326 315 308 305 302 298 292 294 288 283
48 314 13 290 233 238 231 216 90 4 148 175 185 74 158 143 86 144 358 137 153 144 140 137 136 141 139 131 125 126 124 126 125 126 124 127 125 126 127 128 129 126 119 116 109 106 103 99 99 92 80 69 62 53 46 42 40 29 20 8 356 351 350 348 350 347 341 344 344 340 333 337 335 336 332 329 324 322 318 315 316 308 305 297 288 283
30 18 336 232 283 347 327 30 34 115 156 160 92 70 119 143 127 163 154 134 117 129 149 137 138 138 136 134 130 132 131 132 129 127 127 128 127 125 124 124 121 115 111 108 107 104 104 102 97 92 86 72 58 54 48 36 32 25 11 1 359 355 351 352 353 347 343 344 339 336 331 336 330 333 327 320 319 318 317 318 316 316 316 310 303 298
63 16 323 258 270 206 238 148 62 144 192 172 147 111 87 136 156 163 133 119 121 128 125 133 136 139 140 139 134 133 132 133 129 129 128 127 127 128 126 121 118 113 109 107 109 117 113 109 100 90 79 70 55 45 39 35 24 25 10 3 1 358 354 355 351 342 337 338 333 330 331 330 333 329 318 317 318 315 312 313 314 314 308 308 312 309
26 11 317 261 253 220 322 73 48 16 315 229 185 160 150 149 136 133 117 118 121 124 129 134 136 138 143 140 137 135 135 136 133 133 134 132 129 127 124 117 112 107 105 106 109 104 99 93 91 83 77 70 52 37 27 22 21 20 15 4 7 358 353 350 350 337 333 330 326 325 326 325 324 316 314 316 315 310 308 305 303 305 307 311 313 312
314 316 282 332 275 214 65 214 196 170 226 223 228 259 178 157 140 129 125 122 126 127 130 135 142 143 143 135 136 134 134 136 136 139 135 129 127 124 119 116 113 113 115 109 96 89 87 87 85 82 74 60 43 30 31 26 19 18 13 5 3 358 350 346 337 331 325 322 321 318 316 316 316 312 309 307 304 302 302 303 301 296 296 294 289 297
294 278 330 297 258 238 291 344 184 192 214 201 209 198 152 149 143 136 134 133 133 132 136 135 134 133 130 135 137 137 136 139 139 135 128 127 125 122 122 120 120 117 110 104 104 102 99 91 86 75 61 52 36 34 30 26 23 14 7 4 354 353 344 338 330 324 319 319 315 311 313 311 308 304 303 302 300 299 296 286 258 255 277 288 271 211
292 326 331 303 300 304 359 339 342 317 309 305 184 177 169 163 154 147 145 141 140 139 138 134 130 131 134 135 136 135 136 136 135 130 128 125 124 124 124 124 122 119 116 121 117 108 95 88 79 71 58 46 36 38 35 34 22 10 2 356 346 345 338 331 326 317 314 314 309 312 309 301 300 303 300 298 298 300 299 303 289 218 225 241 252 224